Overview Statistics Trail Chart Weather Telemetry Raw packets
 

This is the latest recevied weather packets stored in our database for station/object IU7URP-17. If no packets are shown the sender has not sent any weather packets the latest 10 day(s).

<< 3 4 5 6 7 8 9 >>
Time Temp. Humidity Pressure Rain* Wind** Luminosity Snow
1788489588 22.78° C 85% 1017.5 hPa - - - -
1788488384 22.78° C 85% 1017.5 hPa - - - -
1788487180 22.78° C 84% 1017.4 hPa - - - -
1788485976 22.78° C 83% 1017.3 hPa - - - -
1788484772 22.78° C 84% 1017.3 hPa - - - -
1788482364 23.33° C 83% 1017.2 hPa - - - -
1788481160 23.33° C 82% 1017.1 hPa - - - -
1788479956 22.78° C 83% 1017 hPa - - - -
1788477548 23.33° C 82% 1017.2 hPa - - - -
1788476344 23.89° C 81% 1017.2 hPa - - - -
1788475140 23.89° C 80% 1017.3 hPa - - - -
1788473936 23.89° C 80% 1017.4 hPa - - - -
1788472732 23.89° C 80% 1017.5 hPa - - - -
1788471528 24.44° C 80% 1017.5 hPa - - - -
1788470324 24.44° C 79% 1017.4 hPa - - - -
1788469120 24.44° C 79% 1017.3 hPa - - - -
1788467916 24.44° C 77% 1017.1 hPa - - - -
1788466712 24.44° C 77% 1017.1 hPa - - - -
1788465508 24.44° C 76% 1017.1 hPa - - - -
1788464304 25° C 75% 1016.7 hPa - - - -
1788461896 25.56° C 72% 1016.8 hPa - - - -
1788460692 25.56° C 72% 1016.6 hPa - - - -
1788459488 25.56° C 70% 1016.2 hPa - - - -
1788458284 26.11° C 67% 1015.9 hPa - - - -
1788457079 26.11° C 64% 1015.7 hPa - - - -

* Rain since midnight (hover to see other rain measurements)
** Current wind speed in m/s (hover to see current wind gust speed)